Other Public Products
Issued by NWS Grand Forks, ND

Home | Current Version | Previous Version | Graphics & Text | Print | Product List | Glossary On
Versions: 1 2 3 4 5 6 7 8 9 10 11 12 13 14 15 16 17 18 19 20 21 22 23 24 25 26 27 28 29 30 31 32 33 34 35 36 37 38 39 40 41 42 43 44 45 46 47 48 49 50
000
FPUS83 KFGF 301910
OPUFGF
PRAIRIE TO PINES WEATHER ROUNDUP
NATIONAL WEATHER SERVICE EASTERN NORTH DAKOTA/GRAND FORKS ND
200 PM CDT TUE SEP 30 2014

 **SATELLITE DATA USED TO AUGMENT SKY COVER AT AUTOMATED STATIONS**
 *****  WEATHER ACROSS EASTERN NORTH DAKOTA  *****

CITY           SKY/WX    TMP DP  RH WIND       PRES   REMARKS
GRAND FORKS    PTSUNNY   57  44  62 SE18      29.79F
GRAND FORKS AF PTSUNNY   58  46  65 SE15G23   29.79F
GRAND CITY NWS   N/A     57 N/A N/A SE22        N/A
BUXTON         NOT AVBL
DEVILS LAKE    CLOUDY    50  43  76 SE18G26   29.72F
FARGO          PTSUNNY   59  44  57 SE16G24   29.79F
WAHPETON ARPT  CLOUDY    55  43  62 SE22G31   29.78F
$$

 *****  WEATHER ACROSS CENTRAL AND WESTERN NORTH DAKOTA  *****

CITY           SKY/WX    TMP DP  RH WIND       PRES   REMARKS
JAMESTOWN      LGT RAIN  51  48  89 SE17G26   29.67F
BISMARCK       CLOUDY    55  53  93 E15       29.58F
MINOT          LGT RAIN  49  47  93 E17G23    29.65F
MINOT AFB      LGT RAIN  49  49 100 E16G23    29.65F
GARRISON         N/A     51  50  96 E13       29.61F
WILLISTON      CLOUDY    56  53  90 E8        29.59F
DICKINSON      CLOUDY    53  51  93 E14       29.53F FOG
HETTINGER      LGT RAIN  53  51  93 NE18      29.49F FOG
$$

 *****  OTHER OBSERVATIONS NORTHEAST NORTH DAKOTA  *****

CITY           SKY/WX    TMP DP  RH WIND       PRES   REMARKS
WALHALLA       CLOUDY    54  50  87 SE13G21   29.80F
LANGDON        CLOUDY    48  45  87 SE24G30   29.77F
CAVALIER       FAIR      55  46  71 SE14G22   29.81F
GRAFTON        FAIR      57  46  67 SE17G23   29.81F
CANDO          CLOUDY    50  46  87 SE16G28   29.74F
FORT TOTTEN    NOT AVBL
ROLLA          CLOUDY    46  46 100 SE15G24   29.74F
RUGBY          CLOUDY    50  48  93 SE20G25   29.70F
 ***** THE ABOVE OBSERVATIONS ARE NON NWS ARE NOT QUALITY
        CONTROLLED AND MAY MIS-REPORT RAIN FOR SNOW...
$$

 *****  OTHER OBSERVATIONS SOUTHEAST NORTH DAKOTA *****

CITY           SKY/WX    TMP DP  RH WIND       PRES   REMARKS
COOPERSTOWN    NOT AVBL
VALLEY CITY    MOCLDY    52  52 100 SE16G26   29.72F
OAKES            N/A     50  50 100 E28G36    29.69F
GWINNER        CLOUDY    52  50  93 E25G32    29.74F
SHEYENNE NWR     N/A     53  46  77 SE21      29.95
BUFFALO        NOT AVBL
WYNDMERE         N/A     54  46  76 SE12        N/A
 ***** THE ABOVE OBSERVATIONS ARE NON NWS ARE NOT QUALITY
       CONTROLLED AND MAY MIS-REPORT RAIN FOR SNOW...
$$

  *****  WEATHER ACROSS NORTHERN MINNESOTA  *****

CITY           SKY/WX    TMP DP  RH WIND       PRES   REMARKS
FLAG ISLAND    MOSUNNY   52  43  71 SE10G16   29.92F
WARROAD        SUNNY     55  46  71 E15       29.91F
ROSEAU         SUNNY     59  45  58 SE14G20   29.89F
HALLOCK        SUNNY     61  46  59 SE16G22   29.82F
THF RVR FALLS  MOSUNNY   57  43  58 SE17      29.84F
HALSTAD          N/A     60  39  45 SE17        N/A
FOSSTON        MOSUNNY   57  41  54 SE13G20   29.86F
BAUDETTE       SUNNY     56  43  61 SE13G20   29.93F
WASKISH        SUNNY     57  46  67 E13G20    29.94F
CROOKSTON      MOSUNNY   59  43  55 SE18      29.83F
$$
  *****  WEATHER ACROSS CENTRAL AND WEST MINNESOTA  *****

CITY           SKY/WX    TMP DP  RH WIND       PRES   REMARKS
BEMIDJI        SUNNY     52  41  66 SE18G24   29.92F
PARK RAPIDS    PTSUNNY   52  41  66 SE20G25   29.91F
WADENA         PTSUNNY   54  43  66 SE18G25   29.88F
DETROIT LAKES  PTSUNNY   54  43  66 SE17G23   29.84F
MOORHEAD       NOT AVBL
FERGUS FALLS   PTSUNNY   57  43  58 SE15G25   29.83F
ELBOW LAKE     CLOUDY    54  45  71 SE16G24   29.82F
MORRIS MN      CLOUDY    55  46  71 SE18G29   29.83F
STAPLES        PTSUNNY   54  43  66 E10G17    29.92F
WHEATON        LGT RAIN  52  45  76 SE24G30   29.81F
$$
  *****  WEATHER ELSEWHERE ACROSS MINNESOTA  *****

CITY           SKY/WX    TMP DP  RH WIND       PRES   REMARKS
DULUTH         CLOUDY    47  40  76 E21G26    30.04F
INTRNTL FALLS  MOSUNNY   52  42  69 SE14G21   29.99F
ELY            SUNNY     52  39  62 SE8       30.05F
CLOQUET        CLOUDY    48  41  76 E12G17    30.03F
BRAINERD       MOSUNNY   49  42  77 SE12G20   29.97F
HIBBING        SUNNY     55  41  59 SE15G21   30.01F
ALEXANDRIA     PTSUNNY   52  43  71 E21       29.88F
SAINT CLOUD    PTSUNNY   56  42  59 SE10      29.96F
MINNEAPOLIS    PTSUNNY   55  42  61 E13       29.98F
$$

  *****  WEATHER ACROSS SOUTH DAKOTA  *****

CITY           SKY/WX    TMP DP  RH WIND       PRES   REMARKS
SIOUX FALLS    CLOUDY    63  60  90 SE15G26   29.75F
BROOKINGS      NOT AVBL
WATERTOWN      CLOUDY    54  51  90 SE14G22   29.74F
HURON          MOSUNNY   69  60  73 SE22G32   29.60F
SISSETON         N/A     48  47  96 S18G25    29.78F
ABERDEEN       CLOUDY    61  55  81 SE25G32   29.62F
MITCHELL       MOSUNNY   75  62  64 SE23G31   29.63F
PIERRE         CLOUDY    68  49  50 S29G44    29.44S
MOBRIDGE       CLOUDY    66  58  75 E21G33    29.42F
RAPID CITY     CLOUDY    60  55  83 NW14G20   29.50R
$$

  *****  SOME WEATHER IN NEARBY STATES *****

CITY           SKY/WX    TMP DP  RH WIND       PRES   REMARKS
GLASGOW MT     PTSUNNY   61  51  70 CALM      29.60S
GREAT FALLS MT CLOUDY    58  45  62 SW16      29.71R
CHEYENNE WY    MOSUNNY   61  33  35 W26G38    29.85F
SCOTTSBLUFF NE MOSUNNY   69  42  37 W23G39    29.73S
OMAHA NE       CLOUDY    73  60  63 SW7       29.83S
DES MOINES IA  PTSUNNY   64  57  78 E9        29.91F HAZE
DAVENPORT IA   NOT AVBL
CHICAGO IL     PTSUNNY   56  45  66 NE9       30.03F
EAU CLAIRE WI  SUNNY     55  41  59 E8        30.02F
LA CROSSE WI   CLOUDY    54  43  66 E6        30.04F
$$

  *****  SOME NATIONAL WEATHER *****

CITY           SKY/WX    TMP DP  RH WIND       PRES   REMARKS
LA GUARDIA NY  CLOUDY    66  59  78 E10       29.94F
RALEIGH NC     PTSUNNY   72  63  73 CALM      29.89F
ATLANTA GA     MOSUNNY   79  60  52 CALM      29.92F
NEW ORLEANS LA MOSUNNY   86  70  58 NE12      29.86F HX  90
OKLAHOMA CITY  MOSUNNY   88  58  36 S12G24    29.82F
ALBUQUERQUE NM SUNNY     68  31  25 CALM      30.00F
SALT LAKE CITY LGT RAIN  61  41  47 CALM      29.96F
LOS ANGELES CA SUNNY     76  59  55 W8        29.86F
BOISE ID       PTSUNNY   59  41  51 NW14G22   30.00S
SEATTLE WA     MOSUNNY   60  50  69 SW6       30.11R
$$

*** WEATHER ACROSS MANITOBA...SASKATCHEWAN AND ONTARIO ***
                ***ONTARIO***

CITY           SKY/WX    TMP DP  RH WIND       PRES   REMARKS
GERALDTON      SUNNY     54  34  47 E5        30.13F
THUNDER BAY    SUNNY     52  34  50 E12       30.13F
SIOUX LOOKOUT  MOSUNNY   46  41  81 SE7       30.05F
TORONTO        CLOUDY    64  59  82 SE7       29.92R
BIG TROUT LK   CLOUDY    45  36  70 S12       30.02F HAZE
PICKLE LAKE    MOSUNNY   48  39  71 S8        30.05F
DRYDEN         CLOUDY    46  41  81 SE12G17   30.02F
KENORA         MOSUNNY   52  43  71 E12       29.95F
$$
                *** MANITOBA***

CITY           SKY/WX    TMP DP  RH WIND       PRES   REMARKS
BRANDON        CLOUDY    52  46  82 SE16      29.75F
DAUPHIN        CLOUDY    55  46  71 SE16G22   29.72F
ISLAND LAKE    CLOUDY    52  41  66 S9        29.91F
PILOT MOUND      N/A     48  45  87 SE18G26     N/A
THE PAS        CLOUDY    52  48  87 SE15      29.67F
THOMPSON       CLOUDY    50  45  81 S10       29.78F
WINNIPEG       NOT AVBL
LYNN LAKE      RAIN      45  43  93 SE10      29.65F
CHURCHILL      CLOUDY    43  41  93 E17       29.90F
GILLAM         CLOUDY    48  41  76 S12       29.87F
$$
                ***SASKATCHEWAN***

CITY           SKY/WX    TMP DP  RH WIND       PRES   REMARKS
ESTEVAN        LGT RAIN  50  50 100 E12       29.63F FOG
KINDERSLEY     CLOUDY    52  48  87 NW10      29.57
LLOYDMINSTER   LGT RAIN  52  50  93 NW15G22   29.57R
PRINCE ALBERT  CLOUDY    55  48  76 S10       29.56F
REGINA         CLOUDY    57  52  82 S16       29.60F



USA.gov is the U.S. government's official web portal to all federal, state and local government web resources and services.